Regional Weather Roundup
Issued by NWS State College, PA

Current Version | Previous Version | Text Only | Print | Product List | Glossary On
Versions: 1 2 3 4 5 6 7 8 9 10 11 12 13 14 15 16 17 18 19 20 21 22 23 24 25 26 27 28 29 30 31 32 33 34 35 36 37 38 39 40 41 42 43 44 45 46 47 48 49 50
000
ASUS41 KCTP 291810
RWRCTP

REGIONAL WEATHER ROUNDUP
NATIONAL WEATHER SERVICE STATE COLLEGE PA
200 PM EDT MON MAY 29 2023

Note: "fair" indicates few or no clouds below 12,000 feet with no
significant weather and/or obstructions to visibility.

* = STATION THAT DOES NOT REPORT PRECIPITATION /E.G. RAIN...SNOW...ETC/
    THUNDER OR FOG.

PAZ002>004-007>009-013>016-020>023-029>032-291900-
WESTERN PENNSYLVANIA

CITY           SKY/WX    TMP DP  RH WIND       PRES   REMARKS
ERIE           SUNNY     74  40  29 NE13      30.03S
MEADVILLE      SUNNY     84  47  27 NE9       30.01F
FRANKLIN       SUNNY     83  44  25 VRB5      30.02F
NEW CASTLE     FAIR      83  51  33 VRB5      29.99F
BEAVER COUNTY  MOSUNNY   86  45  24 E5        29.99F
BUTLER         MOSUNNY   82  50  32 N7G17     29.99F
PITTSBURGH INT MOSUNNY   82  50  32 VRB3      29.98F
PITTSBURGH     CLOUDY    80  52  37 S7        29.98F
INDIANA*       MOSUNNY   84  48  28 SE12      30.02S
LATROBE        MOSUNNY   82  52  34 E13       29.98F
WASHINGTON CO* MOSUNNY   80  51  36 E13       30.01F
$$

PAZ004>006-010>012-017>019-024>028-033>037-041-042-045-046-049>053-291900-
CENTRAL PENNSYLVANIA

CITY           SKY/WX    TMP DP  RH WIND       PRES   REMARKS
BRADFORD       SUNNY     83  44  25 E10G16    30.05F
ST MARYS       CLOUDY    82  45  26 E9        30.07S
DUBOIS         SUNNY     85  46  25 E8        30.02F
CLEARFIELD     SUNNY     84  47  27 E7G16     30.02F
JOHNSTOWN      MOSUNNY   78  50  37 SE12G18   30.03S
SOMERSET       CLOUDY    73  46  38 E7        30.03S
ALTOONA        CLOUDY    80  50  34 E9        30.01F
STATE COLLEGE  MOSUNNY   84  50  30 E10       30.00F
REEDSVILLE     FAIR      82  50  32 E7G15     29.99S
WELLSBORO      FAIR      81  43  26 E5        30.04F
WILLIAMSPORT   SUNNY     87  49  26 VRB7      29.97F
SELINSGROVE    MOSUNNY   86  51  29 VRB5      29.97F
FT INDIANTOWN  MOSUNNY   85  47  25 SE16      29.96F
CAPITAL CITY   CLOUDY    83  48  29 SE10      29.98F
HARRISBURG     PTSUNNY   83  53  35 SE10      29.97F
YORK           PTSUNNY   81  50  33 E9        29.99S
$$

PAZ038>040-043-044-047-048-054-055-060>062-067>071-291900-
EASTERN PENNSYLVANIA

CITY           SKY/WX    TMP DP  RH WIND       PRES   REMARKS
TOWANDA        MOSUNNY   82  46  28 E6        30.02F
SCRANTON       SUNNY     85  49  28 E7        30.00F
MOUNT POCONO   SUNNY     76  48  37 SE14G21   30.06F
HAZLETON       FAIR      81  50  34 SE5       30.06F
LEHIGHTON      FAIR      82  50  32 E8        30.00F
ALLENTOWN      SUNNY     83  52  34 E14       30.00F
QN CITY/ALNTWN FAIR      82  54  36 E13G18    30.01F
QUAKERTOWN*    SUNNY     82  55  39 E12G20    30.01F
PERKASIE*      SUNNY     79  55  44 E9G20     30.03S
DOYLESTOWN     MOSUNNY   79  49  34 CALM      30.02S
READING        MOSUNNY   86  51  29 NE8G18    29.97F
LANCASTER      PTSUNNY   85  52  32 SE9       29.98F
COATESVILLE      N/A     79  52  38 E12G24    30.01F
WEST CHESTER   PTSUNNY   79  50  36 E12       30.00F
POTTSTOWN      MOSUNNY   81  53  37 E9        30.01F
BLUE BELL      PTSUNNY   82  56  40 NE14G20   30.01S
NORTH PHILA    PTSUNNY   78  54  43 E16G23    30.03R
PHILADELPHIA   PTSUNNY   81  53  37 E17       29.99S
$$



USA.gov is the U.S. government's official web portal to all federal, state and local government web resources and services.